Location: Oberwangen
(47.4286°N, 8.9679°E)
Time: 08:00:16
(UTC+00:00)

Cosmos 1447 Rocket - Pass Details

Date: 01 November 2021
Orbit: 953 x 996 km, 82.9° (Epoch: 27 November)

Event Time Altitude Azimuth Distance (km) Brightness Sun altitude
Rises 04:21:01 0° 122° (ESE) 3,653 8.5 -18.5°
Reaches altitude 10° 04:25:55 10° 88° (E) 2,703 8.1 -17.6°
Maximum altitude 04:27:19 11° 75° (ENE) 2,643 7.9 -17.4°
Drops below altitude 10° 04:28:42 10° 61° (ENE) 2,701 7.7 -17.2°
Sets 04:33:34 0° 27° (NNE) 3,647 7.8 -16.4°
